TimeEDT,TemperatureF,Dew PointF,Humidity,Sea Level PressureIn,VisibilityMPH,Wind Direction,Wind SpeedMPH,Gust SpeedMPH,PrecipitationIn,Events,Conditions,WindDirDegrees,DateUTC
12:52 AM,71.1,70.0,96,30.13,10.0,South,5.8,-,0.00,Rain,Light Rain,180,2013-07-06 04:52:00
2:52 AM,70.0,70.0,100,30.12,10.0,SSE,6.9,-,0.01,Rain,Light Rain,160,2013-07-06 06:52:00
3:52 AM,70.0,70.0,100,30.11,9.0,Calm,Calm,-,0.00,Rain,Light Rain,0,2013-07-06 07:52:00
4:52 AM,70.0,69.1,97,30.11,9.0,SSW,3.5,-,0.03,Rain,Light Rain,200,2013-07-06 08:52:00
5:52 AM,69.1,68.0,96,30.11,6.0,Calm,Calm,-,0.08,Rain,Light Rain,0,2013-07-06 09:52:00
6:26 AM,69.8,68.0,94,30.12,9.0,East,4.6,-,0.03,Rain,Light Rain,100,2013-07-06 10:26:00
6:52 AM,69.1,69.1,100,30.09,9.0,East,5.8,-,0.04,Rain,Light Rain,90,2013-07-06 10:52:00
7:21 AM,69.8,69.8,100,30.12,5.0,East,4.6,-,0.01,Rain,Light Rain,100,2013-07-06 11:21:00
7:52 AM,69.1,69.1,100,30.11,2.5,ESE,6.9,-,0.07,Rain,Heavy Rain,110,2013-07-06 11:52:00
8:52 AM,69.1,69.1,100,30.11,3.0,ESE,5.8,-,0.20,Rain,Rain,110,2013-07-06 12:52:00
9:16 AM,69.8,69.8,100,30.13,1.2,SE,8.1,-,0.11,Rain,Heavy Rain,130,2013-07-06 13:16:00
9:40 AM,69.8,69.8,100,30.13,1.5,SE,9.2,-,0.27,Rain,Heavy Rain,140,2013-07-06 13:40:00
10:35 AM,69.8,69.8,100,30.12,3.0,SE,6.9,-,0.15,Rain,Light Rain,140,2013-07-06 14:35:00
10:52 AM,68.0,68.0,100,30.10,1.0,East,6.9,-,0.28,Rain,Heavy Rain,100,2013-07-06 14:52:00
11:23 AM,69.8,69.8,100,30.11,3.0,East,8.1,-,0.27,Rain,Light Rain,100,2013-07-06 15:23:00
11:52 AM,70.0,69.1,97,30.07,7.0,ENE,3.5,-,0.28,Rain,Light Rain,60,2013-07-06 15:52:00
12:18 PM,71.6,69.8,94,30.08,7.0,East,5.8,-,0.00,Rain,Light Rain,100,2013-07-06 16:18:00
12:52 PM,72.0,70.0,93,30.07,10.0,SE,5.8,-,0.00,,Overcast,130,2013-07-06 16:52:00
1:52 PM,73.9,71.1,91,30.06,10.0,WSW,8.1,-,0.00,Rain,Light Rain,240,2013-07-06 17:52:00
2:21 PM,73.4,69.8,88,30.09,5.0,WSW,9.2,-,0.00,Rain,Light Rain,240,2013-07-06 18:21:00
2:52 PM,73.9,71.1,91,30.07,8.0,WSW,10.4,-,0.00,,Overcast,250,2013-07-06 18:52:00
3:28 PM,73.4,69.8,88,30.09,10.0,SW,5.8,-,N/A,,Overcast,230,2013-07-06 19:28:00
3:52 PM,73.0,69.1,87,30.07,10.0,SW,11.5,-,0.00,Rain,Light Rain,230,2013-07-06 19:52:00
4:50 PM,71.6,69.8,94,30.10,10.0,SW,9.2,-,0.00,Rain,Light Rain,220,2013-07-06 20:50:00
4:52 PM,72.0,69.1,91,30.08,10.0,SW,9.2,-,0.00,Rain,Light Rain,230,2013-07-06 20:52:00
5:29 PM,71.6,69.8,94,30.09,10.0,SW,3.5,-,0.00,,Mostly Cloudy,230,2013-07-06 21:29:00
5:52 PM,72.0,69.1,91,30.06,10.0,WSW,5.8,-,0.00,,Overcast,250,2013-07-06 21:52:00
6:12 PM,71.6,68.0,88,30.08,10.0,WSW,6.9,-,N/A,,Overcast,240,2013-07-06 22:12:00
6:52 PM,71.1,66.9,87,30.06,10.0,SW,5.8,-,N/A,,Overcast,230,2013-07-06 22:52:00
7:16 PM,71.6,66.2,83,30.09,10.0,SW,5.8,-,N/A,,Overcast,230,2013-07-06 23:16:00
7:52 PM,70.0,66.9,90,30.07,10.0,SW,4.6,-,N/A,,Overcast,220,2013-07-06 23:52:00
8:52 PM,69.1,68.0,96,30.09,10.0,South,5.8,-,N/A,,Mostly Cloudy,190,2013-07-07 00:52:00
9:52 PM,69.1,66.9,93,30.10,10.0,SSW,6.9,-,N/A,,Mostly Cloudy,200,2013-07-07 01:52:00
10:52 PM,68.0,66.9,96,30.11,10.0,South,9.2,-,N/A,,Overcast,180,2013-07-07 02:52:00
11:52 PM,66.9,66.0,97,30.11,10.0,South,9.2,-,N/A,,Overcast,190,2013-07-07 03:52:00